Home   Weather   Jeddah   Past weeks

Flag for Saudi Arabia Past Weather in Jeddah, Saudi Arabia — Yesterday and Last 2 Weeks

Now
81 °F

Clear.


Feels Like: 83 °F
Forecast: 78 / 85 °F
Wind: 5 mph from West

Location: Jeddah King Abdul Aziz International Airport

Current Time: Dec 8, 2016 at 6:59:53 pm

Latest Report: Dec 8, 2016 at 6:00 pm


Visibility: 10 mi

Pressure: 29.95 "Hg

Humidity: 62%

Dew Point: 66 °F

Location of JeddahLocation

Past Weather in Jeddah — Graph

°F

Jeddah Temperature Yesterday

Maximum temperature yesterday: 86 °F (at 12:00 pm)
Minimum temperature yesterday: 72 °F (at 5:00 am)
Average temperature yesterday: 79 °F

High & Low Weather Summary for the Past Weeks

 TemperatureHumidityPressure
High93 °F (Nov 29, 12:00 pm)84% (Dec 5, 9:00 am)30.04 "Hg (Dec 5, 9:00 am)
Low72 °F (Nov 26, 7:00 am)15% (Nov 26, 2:00 pm)29.71 "Hg (Nov 24, 3:00 pm)
Average82 °F55%29.90 "Hg
* Reported Nov 23 5:00 pm — Dec 8 5:00 pm, Jeddah, Weather by CustomWeather, © 2016

Note: Actual official high and low records may vary slightly from our data, if they occured in-between our weather recording intervals... More about our weather records

Advertising

Jeddah Weather History for the Previous 24 Hours

Scroll right to see more
 ConditionsComfort  
Time TempWeatherWind HumidityBarometerVisibility
5:00 pm
Thu, Dec 8
82 °FSunny.9 mph58%29.95 "Hg10 mi
4:00 pm84 °FPassing clouds.9 mph58%29.92 "HgN/A
3:00 pm84 °FPassing clouds.14 mph58%29.92 "HgN/A
2:00 pm84 °FSunny.12 mph58%29.92 "Hg10 mi
1:00 pm86 °FSunny.12 mph52%29.95 "Hg5 mi
12:00 pm84 °FSunny.7 mph51%30.01 "Hg5 mi
11:00 am84 °FSunny.7 mph51%30.01 "Hg5 mi
10:00 am82 °FSunny.5 mph48%30.01 "Hg5 mi
9:00 am79 °FSunny.6 mph61%30.01 "Hg5 mi
8:00 am75 °FClear.2 mph69%30.01 "Hg5 mi
7:00 am73 °FClear.No wind74%29.98 "Hg5 mi
6:00 am73 °FClear.No wind74%29.95 "Hg10 mi
5:00 am73 °FClear.No wind74%29.95 "Hg10 mi
4:00 am75 °FClear.3 mph74%29.95 "Hg10 mi
3:00 am75 °FClear.3 mph74%29.95 "Hg10 mi
2:00 am75 °FClear.3 mph74%29.95 "Hg10 mi
1:00 am77 °FClear.3 mph69%29.95 "Hg10 mi
12:00 am77 °FClear.3 mph69%29.95 "Hg10 mi
11:00 pm
Wed, Dec 7
77 °FClear.5 mph69%29.98 "Hg10 mi
10:00 pm79 °FClear.5 mph61%29.98 "Hg10 mi
9:00 pm81 °FClear.6 mph62%29.98 "Hg10 mi
8:00 pm81 °FClear.5 mph62%29.98 "Hg10 mi
7:00 pm81 °FClear.10 mph62%29.95 "Hg10 mi
6:00 pm82 °FClear.8 mph55%29.92 "Hg10 mi
Weather by CustomWeather, © 2016

See weather overviewHow to use our weather pages